Погода в Алтынёзю

Турция     36°06′56″N   36°14′53″E
темп.,
°C
ветер,
м/с
пор.,
м/с
влажн.,
%
обл.,
%
осадки,
мм/ч
давл.,
гПа
погр.,
м
20 июня, вс
вс2000:00+18зюз46912 0.0 1010164
03:00+17зюз45936 0.0 1010143
06:00+18зюз458913 0.0 1010188
09:00+23з46580 0.0 1010809
12:00+27зюз88470 0.0 10091035
15:00+28зюз67420 0.0 1009970
18:00+25зюз57470 0.0 1008709
21:00+19з34811 0.0 1010107
21 июня, пн
пн2100:00+17зюз359110 0.0 1011153
03:00+18зюз34876 0.0 1010146
06:00+17зюз338812 0.0 1011133
09:00+23зюз34583 0.0 1011983
12:00+27зюз76400 0.0 10111644
15:00+27зюз78410 0.0 10101504
18:00+24зюз68520 0.0 1010830
21:00+19з34833 0.0 1012119
22 июня, вт
вт2200:00+18з33849 0.0 1012136
03:00+19з238020 0.0 1011161
06:00+18з22853 0.0 101266
09:00+23з34573 0.0 10121064
12:00+27зюз65440 0.0 10111622
15:00+27зюз87480 0.0 10101311
18:00+24з68510 0.0 1011701
21:00+19з35861 0.0 1012144
23 июня, ср
ср2300:00+18зюз349210 0.0 101290
03:00+18з33914 0.0 101287
06:00+18з339011 0.0 1012126
09:00+24з45570 0.0 1012743
12:00+29з55340 0.0 10111127
15:00+30з66320 0.0 10101062
18:00+27з58410 0.0 1010562
21:00+21з34700 0.0 101289
24 июня, чт
чт2400:00+20з33780 0.0 101250
03:00+19з32800 0.0 101140
06:00+19з22790 0.0 101153
09:00+26зсз33460 0.0 1010647
12:00+32зсз44320 0.0 10101250
15:00+33з54290 0.0 10081350
18:00+30з46300 0.0 1008666
21:00+23з33590 0.0 101051